Retour au catalogue

STARLINK-38190

ActifCommunicationsSSO
NORAD 100219·PAYLOAD·🇺🇸 United States

Lancé Aug 4, 2026 depuis Vandenberg Space Force Base

Loading…

Prochains Passages (prochaines 24 heures)

TLE

FraisSource: Space-Track

Époque: Sep 14, 2026, 21:42 UTC

1 A0219U 26177G   26257.90433338  .00019018  00000-0  35032-3 0  9995
2 A0219  97.2829 308.6386 0001452  72.3314 287.8096 15.49202899  6495

Suivez STARLINK-38190 en temps réel avec AllMySat

Download on the App Store